Location: Bednik
(45.3500°N, 16.3833°E)
Time: 07:20:30
(UTC+00:00)

Cosmos 1570 Rocket - Pass Details

Date: 08 August 2020
Orbit: 762 x 789 km, 74.1° (Epoch: 26 September)

Event Time Altitude Azimuth Distance (km) Brightness Sun altitude
Rises 21:45:30 0° 336° (NNW) 3,269 8.6 -26.6°
Reaches altitude 10° 21:47:54 10° 335° (NNW) 2,341 7.5 -26.7°
Enters shadow 21:53:09 71° 256° (WSW) 828 4.0 -27.0°
